Location: Kakus Pandan Protected Forest
(2.7500°N, 113.4833°E)
Time: 15:24:25
(UTC+00:00)

Daily predictions for brighter satellites

Satellite Brightness Start Highest point End
(mag) Time Altitude Azimuth Time Altitude Azimuth Time Altitude Azimuth
Ariane H10+ 2.7 12:05:06 10° WNW 12:05:47 17° NW 12:05:47 17° NW
Cosmos 1892 2.3 12:07:16 76° S 12:07:31 89° W 12:11:02 10° N
OAO 3 Rocket 2.9 12:06:36 10° SW 12:11:12 80° SE 12:12:05 57° ENE
GPS 2-14 Rocket1 4.1 12:09:04 10° WSW 12:10:32 20° SW 12:10:32 20° SW
MOS 1-B Rocket 4.2 12:15:27 41° ENE 12:15:27 41° ENE 12:20:41 10° N
BlueWalker 3 3.8 12:17:07 10° N 12:18:42 20° NNE 12:18:42 20° NNE
H-2A R/B 2.3 12:14:02 10° WSW 12:21:00 68° NW 12:23:15 34° NE
ARIANE 5 DEB (SYLDA) 2.3 12:14:34 10° W 12:21:05 81° NW 12:21:05 81° NW
Cosmos 1825 3.2 12:25:40 38° NW 12:25:40 38° NW 12:28:13 10° NNW
CZ-4B R/B 3.6 12:27:23 46° NE 12:27:23 46° NE 12:31:50 10° N
SJ-6B 3.6 12:27:59 45° W 12:27:59 45° W 12:31:34 10° NNW
Centaur D-1AR AC-38 3.8 12:20:59 10° WNW 12:29:19 55° NNE 12:29:41 53° NE
Nadezhda 1 Rocket 4.1 12:25:06 10° N 12:31:07 70° W 12:34:23 29° S
SEDSat Delta rocket 4.0 12:27:51 10° WNW 12:34:27 67° SW 12:35:26 59° S
Cosmos 1538 Rocket 4.1 12:35:20 10° NNW 12:40:14 76° NNW 12:40:14 76° NNW
SPOT 1/Viking Rocket 4.2 12:40:31 40° SW 12:41:46 49° WSW 12:46:43 10° NNW
Delta 198 4.3 12:37:56 10° WNW 12:41:20 53° WNW 12:41:20 53° WNW
Cosmos 1818 4.4 12:42:11 10° NW 12:47:16 42° WSW 12:47:52 41° SW
Cosmos 2074 Rocket 4.3 12:57:52 60° N 12:57:52 60° N 13:02:51 10° N
Resurs 01 Rocket 4.1 13:14:31 18° NW 13:14:31 18° NW 13:15:46 10° NNW
SL-16 R/B 4.1 13:19:58 10° NW 13:24:01 23° W 13:24:01 23° W
Ariane H10+ 4.4 19:20:27 24° E 19:20:27 24° E 19:24:55 10° E
Atlas Centaur 2 4.2 19:49:01 28° NNW 19:49:01 28° NNW 19:54:54 10° NNE
CENTAUR R/B 3.3 19:44:42 10° NNW 19:54:03 85° ENE 20:02:54 10° SSE
Cosmos 2279 Rocket 4.2 20:03:35 67° ENE 20:03:35 67° ENE 20:09:13 10° N
Ariane V96 H10-3 4.4 20:12:21 74° WSW 20:13:03 83° S 20:43:48 10° E
Cosmos 1092 Rocket 4.4 20:08:22 10° N 20:14:23 59° E 20:17:46 27° SSE
Cosmos 540 Rocket 4.0 20:16:22 56° NE 20:16:22 56° NE 20:20:27 10° NNE
NOSS 3-2 (A) 4.3 20:14:41 10° NNW 20:23:39 88° ENE 20:32:51 10° SSE
Cosmos 1666 Rocket 4.5 20:30:24 40° ESE 20:31:09 45° E 20:35:16 10° NNE
Cosmos 371 Rocket 4.3 20:27:44 10° N 20:32:18 44° ENE 20:36:53 10° SSE
Cosmos 2297 Rocket 2.2 20:27:59 10° NNW 20:33:38 78° ENE 20:39:16 10° SSE
ARGOS 4.3 20:29:47 10° NNE 20:34:49 40° ESE 20:39:15 13° SSE
SL-16 R/B 2.2 20:33:36 51° S 20:35:01 75° ESE 20:40:39 10° NNE
Cosmos 468 Rocket 3.9 20:40:57 63° WNW 20:40:57 63° WNW 20:46:05 10° N
Uosat 12 SS-18 rocket 4.4 20:38:22 10° NNW 20:43:13 86° ENE 20:49:08 10° SSE
Palapa 6 Rocket 4.4 20:40:50 26° WNW 20:45:47 80° NNE 20:53:23 10° ESE
SWIFT 3.2 20:51:55 33° NNW 20:52:03 33° NNW 20:55:39 10° NE
Cosmos 2322 Rocket 2.5 20:51:30 21° S 20:55:20 66° ESE 21:00:53 10° NNE
CSL-04 DEB 4.3 20:54:33 10° N 20:58:33 63° WNW 20:59:04 57° WSW
Gbstr 26 Del rocket 4.4 20:55:40 10° NW 21:03:07 63° SW 21:11:02 10° SSE
H-2A R/B 2.9 21:01:04 10° NNW 21:04:49 27° WNW 21:04:49 27° WNW
ARIANE 5 R/B 3.6 21:00:36 20° W 21:08:27 86° S 21:12:36 10° E
CZ-4B R/B 4.5 21:04:09 10° S 21:08:32 70° WSW 21:12:49 10° NNW
HETE-2 4.3 21:10:55 44° WSW 21:12:02 73° S 21:15:57 10° E
Cosmos 1484 Rocket 4.3 21:14:13 10° NNW 21:15:51 18° NW 21:15:51 18° NW
Cosmos 1633 Rocket 3.3 21:15:07 26° SW 21:17:11 47° W 21:21:22 10° NNW
Cosmos 1503 Rocket 4.0 21:12:12 10° N 21:17:21 81° ENE 21:22:36 10° SSE
ATLAS 2AS CENTAUR R/B 2.9 21:11:53 13° SSW 21:18:46 88° WNW 21:26:13 10° NNE
ARIANE 5 R/B 2.6 21:15:20 10° NNE 21:20:30 79° ESE 21:25:43 10° S
Meteor 1-23 Rocket 4.1 21:15:54 10° N 21:21:32 86° W 21:27:08 10° S
Cosmos 1470 3.0 21:19:53 10° S 21:23:31 64° E 21:27:08 10° NNE
Cosmos 2360 Rocket 2.1 21:18:41 10° SSW 21:24:21 83° WNW 21:30:00 10° NNE
Cosmos 2219 4.3 21:19:05 10° N 21:24:34 48° ENE 21:30:03 10° SSE
Cosmos 841 Rocket 3.7 21:23:04 17° SW 21:26:46 47° WNW 21:31:47 10° N
deb Ariane 3.5 21:29:15 22° WSW 21:30:52 41° S 21:33:45 10° ESE
SJ-12 4.4 21:27:44 10° NNE 21:31:39 61° E 21:35:35 10° S
BREEZE-M TANK 4.3 21:30:29 15° WNW 21:32:13 19° NW 21:35:30 10° N
SL-24 R/B - RUBIN 2 4.5 21:28:37 17° SW 21:32:43 50° WNW 21:38:38 10° N
SL-4 R/B 4.0 21:34:08 11° WNW 21:35:05 12° NW 21:36:39 10° NNW
Cosmos 332 Rocket 4.0 21:32:11 10° N 21:36:55 76° ENE 21:41:40 10° SSE
ERS-1 4.4 21:32:41 10° N 21:37:37 76° WNW 21:42:33 10° SSW
Meteor 1-4 Rocket 2.5 21:37:11 10° NNW 21:39:47 33° W 21:42:25 10° SSW
Cosmos 2333 4.2 21:34:52 10° SSW 21:40:30 88° WNW 21:46:11 10° NNE
Cosmos 1356 Rocket 4.4 21:41:37 10° NW 21:44:48 24° W 21:48:02 10° SSW
SL-08 ROCKET BODY 4.4 21:40:17 10° N 21:46:16 88° W 21:52:22 10° S
Cosmos 2333 Rocket 2.4 21:40:53 10° SSW 21:46:22 53° WNW 21:51:52 10° N
SJ-11-01 4.4 21:45:46 10° N 21:50:20 58° WNW 21:54:57 10° SSW
Lacrosse 5 2.0 21:45:53 10° NNW 21:50:57 81° ENE 21:56:03 10° SSE
USA 267 3.3 21:44:55 10° NNE 21:51:23 68° NW 21:57:51 10° SW
GPS 2-14 Rocket1 4.4 21:56:12 10° S 21:57:41 13° SSE 21:59:09 10° SE
ATLAS 5 CENTAUR R/B 4.1 21:52:08 10° N 21:58:18 45° ENE 22:05:16 10° SE
PSLV R/B 4.3 21:54:24 10° NNE 21:58:29 55° ESE 22:02:33 10° S
Cosmos 2263 Rocket 2.5 21:53:09 10° N 21:58:47 77° ENE 22:04:26 10° SSE
Okean 3 3.3 21:56:31 10° N 22:00:35 80° W 22:04:39 10° S
USA 238 DEB 4.1 21:52:53 10° NNW 22:00:54 80° WSW 22:08:57 10° SSE
USA 238 4.1 21:52:58 10° NNW 22:00:58 81° WSW 22:09:00 10° SSE
Cosmos 2227 Rocket 3.0 21:56:53 10° NW 22:01:32 27° WSW 22:06:14 10° SSW
Cosmos 1242 Rocket 2.1 21:59:34 10° NNW 22:01:58 38° W 22:04:23 10° SSW
ARIANE 5 DEB (SYLDA) 4.2 22:00:23 10° SW 22:02:33 21° SSE 22:06:12 10° ESE
Cosmos 1814 Rocket 4.0 21:57:54 10° SSW 22:03:03 79° WNW 22:08:15 10° N
Fermi 3.7 21:59:15 10° WSW 22:03:12 85° NNW 22:07:09 10° ENE
ARIANE 5 DEB (SYLDA) 3.3 21:59:09 10° W 22:03:15 90° NE 22:08:24 10° E
Cosmos 1908 3.6 22:00:41 10° SSW 22:03:59 36° W 22:07:17 10° NNW
ARIANE 5 R/B 4.1 15:32:50 10° W 23:07:48 67° S 23:13:05 10° ESE
ATLAS 2AS CENTAUR RB 4.1 22:59:24 10° WSW 23:43:04 80° S 23:48:23 10° E
